Location: Trebic
(49.2170°N, 15.8830°E)
Time: 07:45:00
(UTC+02:00)

Transit 2A Rocket - Pass Details

Date: 23 July 2019
Orbit: 590 x 913 km, 66.7° (Epoch: 20 August)

Event Time Altitude Azimuth Distance (km) Brightness Sun altitude
Rises 04:12:50 0° 220° (SW) 3,513 - -8.8°
Reaches altitude 10° 04:15:24 10° 222° (SW) 2,554 - -8.5°
Exits shadow 04:15:29 10° 222° (SW) 2,526 7.0 -8.5°
Maximum altitude 04:21:22 74° 308° (NW) 889 5.3 -7.9°
Drops below altitude 10° 04:26:56 10° 34° (NNE) 2,393 9.1 -7.2°
Sets 04:29:17 0° 36° (NE) 3,278 10.3 -6.9°
